Time,TemperatureF,DewpointF,PressureIn,WindDirection,WindDirectionDegrees,WindSpeedMPH,WindSpeedGustMPH,Humidity,HourlyPrecipIn,Conditions,Clouds,dailyrainin,SolarRadiationWatts/m^2,SoftwareType,DateUTC
2013-01-15 00:02:00,-7.0,-11.0,-100.00,WSW,243,1.0,2.0,81,0.00,,,0.00,0.000000,,2013-01-15 07:02:00,
2013-01-15 00:12:00,-7.0,-11.0,-100.00,WSW,243,1.0,2.0,81,0.00,,,0.00,0.000000,,2013-01-15 07:12:00,
2013-01-15 00:22:00,-8.0,-12.0,-100.00,West,273,1.0,2.0,83,0.00,,,0.00,0.000000,,2013-01-15 07:22:00,
2013-01-15 00:43:00,-8.0,-12.0,-100.00,West,273,1.0,2.0,83,0.00,,,0.00,0.000000,,2013-01-15 07:43:00,
2013-01-15 00:53:00,-8.0,-12.0,-100.00,West,273,1.0,2.0,83,0.00,,,0.00,0.000000,,2013-01-15 07:53:00,
2013-01-15 01:02:00,-8.0,-12.0,-100.00,West,273,1.0,2.0,83,0.00,,,0.00,0.000000,,2013-01-15 08:02:00,
2013-01-15 01:12:00,-8.0,-12.0,-100.00,West,273,1.0,2.0,83,0.00,,,0.00,0.000000,,2013-01-15 08:12:00,
2013-01-15 01:22:00,-9.0,-13.0,-100.00,SSE,167,1.0,2.0,83,0.00,,,0.00,0.000000,,2013-01-15 08:22:00,
2013-01-15 01:43:00,-9.0,-13.0,-100.00,SSE,167,1.0,2.0,83,0.00,,,0.00,0.000000,,2013-01-15 08:43:00,
2013-01-15 01:53:00,-9.0,-13.0,-100.00,SSE,167,1.0,2.0,83,0.00,,,0.00,0.000000,,2013-01-15 08:53:00,
2013-01-15 02:02:00,-9.0,-13.0,-100.00,SSE,167,1.0,2.0,83,0.00,,,0.00,0.000000,,2013-01-15 09:02:00,
2013-01-15 02:12:00,-9.0,-13.0,-100.00,SSE,167,1.0,2.0,83,0.00,,,0.00,0.000000,,2013-01-15 09:12:00,
2013-01-15 02:22:00,-10.0,-14.0,-100.00,West,262,2.0,2.0,81,0.00,,,0.00,0.000000,,2013-01-15 09:22:00,
2013-01-15 02:43:00,-10.0,-14.0,-100.00,West,262,2.0,2.0,81,0.00,,,0.00,0.000000,,2013-01-15 09:43:00,
2013-01-15 02:52:00,-10.0,-14.0,-100.00,West,262,2.0,2.0,81,0.00,,,0.00,0.000000,,2013-01-15 09:52:00,
2013-01-15 03:02:00,-10.0,-14.0,-100.00,West,262,2.0,2.0,81,0.00,,,0.00,0.000000,,2013-01-15 10:02:00,
2013-01-15 03:12:00,-10.0,-14.0,-100.00,West,262,2.0,2.0,81,0.00,,,0.00,0.000000,,2013-01-15 10:12:00,
2013-01-15 03:22:00,-12.0,-16.0,-100.00,West,269,1.0,2.0,81,0.00,,,0.00,0.000000,,2013-01-15 10:22:00,
2013-01-15 03:42:00,-12.0,-16.0,-100.00,West,269,1.0,2.0,81,0.00,,,0.00,0.000000,,2013-01-15 10:42:00,
2013-01-15 03:52:00,-12.0,-16.0,-100.00,West,269,1.0,2.0,81,0.00,,,0.00,0.000000,,2013-01-15 10:52:00,
2013-01-15 04:02:00,-12.0,-16.0,-100.00,West,269,1.0,2.0,81,0.00,,,0.00,0.000000,,2013-01-15 11:02:00,
2013-01-15 04:12:00,-12.0,-16.0,-100.00,West,269,1.0,2.0,81,0.00,,,0.00,0.000000,,2013-01-15 11:12:00,
2013-01-15 04:22:00,-14.0,-18.0,-100.00,SSW,208,1.0,2.0,80,0.00,,,0.00,0.000000,,2013-01-15 11:22:00,
2013-01-15 04:43:00,-14.0,-18.0,-100.00,SSW,208,1.0,2.0,80,0.00,,,0.00,0.000000,,2013-01-15 11:43:00,
2013-01-15 04:53:00,-14.0,-18.0,-100.00,SSW,208,1.0,2.0,80,0.00,,,0.00,0.000000,,2013-01-15 11:53:00,
2013-01-15 05:03:00,-14.0,-18.0,-100.00,SSW,208,1.0,2.0,80,0.00,,,0.00,0.000000,,2013-01-15 12:03:00,
2013-01-15 05:12:00,-14.0,-18.0,-100.00,SSW,208,1.0,2.0,80,0.00,,,0.00,0.000000,,2013-01-15 12:12:00,
2013-01-15 05:22:00,-13.0,-17.0,-100.00,South,180,0.0,2.0,83,0.00,,,0.00,0.000000,,2013-01-15 12:22:00,
2013-01-15 05:43:00,-13.0,-17.0,-100.00,South,180,0.0,2.0,83,0.00,,,0.00,0.000000,,2013-01-15 12:43:00,
2013-01-15 05:53:00,-13.0,-17.0,-100.00,South,180,0.0,2.0,83,0.00,,,0.00,0.000000,,2013-01-15 12:53:00,
2013-01-15 06:03:00,-13.0,-17.0,-100.00,South,180,0.0,2.0,83,0.00,,,0.00,0.000000,,2013-01-15 13:03:00,
2013-01-15 06:12:00,-13.0,-17.0,-100.00,South,180,0.0,2.0,83,0.00,,,0.00,0.000000,,2013-01-15 13:12:00,
2013-01-15 06:22:00,-13.0,-17.0,-100.00,SE,144,0.0,2.0,83,0.00,,,0.00,0.000000,,2013-01-15 13:22:00,
2013-01-15 06:43:00,-13.0,-17.0,-100.00,SE,144,0.0,2.0,83,0.00,,,0.00,0.000000,,2013-01-15 13:43:00,
2013-01-15 06:53:00,-13.0,-17.0,-100.00,SE,144,0.0,2.0,83,0.00,,,0.00,0.000000,,2013-01-15 13:53:00,
2013-01-15 07:03:00,-13.0,-17.0,-100.00,SE,144,0.0,2.0,83,0.00,,,0.00,0.000000,,2013-01-15 14:03:00,
2013-01-15 07:12:00,-13.0,-17.0,-100.00,SE,144,0.0,2.0,83,0.00,,,0.00,0.000000,,2013-01-15 14:12:00,
2013-01-15 07:22:00,-14.0,-18.0,-100.00,West,273,1.0,2.0,80,0.00,,,0.00,0.000000,,2013-01-15 14:22:00,
2013-01-15 07:43:00,-14.0,-18.0,-100.00,West,273,1.0,2.0,80,0.00,,,0.00,0.000000,,2013-01-15 14:43:00,
2013-01-15 07:53:00,-14.0,-18.0,-100.00,West,273,1.0,2.0,80,0.00,,,0.00,0.000000,,2013-01-15 14:53:00,
2013-01-15 08:03:00,-14.0,-18.0,-100.00,West,273,1.0,2.0,80,0.00,,,0.00,0.000000,,2013-01-15 15:03:00,
2013-01-15 08:12:00,-14.0,-18.0,-100.00,West,273,1.0,2.0,80,0.00,,,0.00,0.000000,,2013-01-15 15:12:00,
2013-01-15 08:22:00,-13.0,-18.0,-100.00,ESE,116,2.0,2.0,79,0.00,,,0.00,41.000000,,2013-01-15 15:22:00,
2013-01-15 08:43:00,-13.0,-18.0,-100.00,ESE,116,2.0,2.0,79,0.00,,,0.00,41.000000,,2013-01-15 15:43:00,
2013-01-15 08:53:00,-13.0,-18.0,-100.00,ESE,116,2.0,2.0,79,0.00,,,0.00,41.000000,,2013-01-15 15:53:00,
2013-01-15 09:03:00,-13.0,-18.0,-100.00,ESE,116,2.0,2.0,79,0.00,,,0.00,41.000000,,2013-01-15 16:03:00,
2013-01-15 09:12:00,-13.0,-18.0,-100.00,ESE,116,2.0,2.0,79,0.00,,,0.00,41.000000,,2013-01-15 16:12:00,
2013-01-15 09:22:00,-6.0,-13.0,-100.00,NE,52,2.0,3.0,71,0.00,,,0.00,248.000000,,2013-01-15 16:22:00,
2013-01-15 09:43:00,-6.0,-13.0,-100.00,NE,52,2.0,3.0,71,0.00,,,0.00,248.000000,,2013-01-15 16:43:00,
2013-01-15 09:53:00,-6.0,-13.0,-100.00,NE,52,2.0,3.0,71,0.00,,,0.00,248.000000,,2013-01-15 16:53:00,
2013-01-15 10:03:00,-6.0,-13.0,-100.00,NE,52,2.0,3.0,71,0.00,,,0.00,248.000000,,2013-01-15 17:03:00,
2013-01-15 10:12:00,-6.0,-13.0,-100.00,NE,52,2.0,3.0,71,0.00,,,0.00,248.000000,,2013-01-15 17:12:00,
2013-01-15 10:22:00,2.0,-12.0,-100.00,NNW,332,1.0,3.0,52,0.00,,,0.00,421.000000,,2013-01-15 17:22:00,
2013-01-15 10:43:00,2.0,-12.0,-100.00,NNW,332,1.0,3.0,52,0.00,,,0.00,421.000000,,2013-01-15 17:43:00,
2013-01-15 10:53:00,2.0,-12.0,-100.00,NNW,332,1.0,3.0,52,0.00,,,0.00,421.000000,,2013-01-15 17:53:00,
2013-01-15 11:03:00,2.0,-12.0,-100.00,NNW,332,1.0,3.0,52,0.00,,,0.00,421.000000,,2013-01-15 18:03:00,
2013-01-15 11:13:00,2.0,-12.0,-100.00,NNW,332,1.0,3.0,52,0.00,,,0.00,421.000000,,2013-01-15 18:13:00,
2013-01-15 11:22:00,6.0,-12.0,-100.00,NNW,343,2.0,2.0,43,0.00,,,0.00,541.000000,,2013-01-15 18:22:00,
2013-01-15 11:43:00,6.0,-12.0,-100.00,NNW,343,2.0,2.0,43,0.00,,,0.00,541.000000,,2013-01-15 18:43:00,
2013-01-15 11:53:00,6.0,-12.0,-100.00,NNW,343,2.0,2.0,43,0.00,,,0.00,541.000000,,2013-01-15 18:53:00,
2013-01-15 12:03:00,6.0,-12.0,-100.00,NNW,343,2.0,2.0,43,0.00,,,0.00,541.000000,,2013-01-15 19:03:00,
2013-01-15 12:12:00,6.0,-12.0,-100.00,NNW,343,2.0,2.0,43,0.00,,,0.00,541.000000,,2013-01-15 19:12:00,
2013-01-15 12:22:00,7.0,-11.0,-100.00,West,269,2.0,3.0,42,0.00,,,0.00,654.000000,,2013-01-15 19:22:00,
2013-01-15 12:43:00,7.0,-11.0,-100.00,West,269,2.0,3.0,42,0.00,,,0.00,654.000000,,2013-01-15 19:43:00,
2013-01-15 12:53:00,7.0,-11.0,-100.00,West,269,2.0,3.0,42,0.00,,,0.00,654.000000,,2013-01-15 19:53:00,
2013-01-15 13:03:00,7.0,-11.0,-100.00,West,269,2.0,3.0,42,0.00,,,0.00,654.000000,,2013-01-15 20:03:00,
2013-01-15 13:12:00,7.0,-11.0,-100.00,West,269,2.0,3.0,42,0.00,,,0.00,654.000000,,2013-01-15 20:12:00,
2013-01-15 13:22:00,7.0,-11.0,-100.00,WNW,285,2.0,3.0,42,0.00,,,0.00,661.000000,,2013-01-15 20:22:00,
2013-01-15 13:44:00,7.0,-11.0,-100.00,WNW,285,2.0,3.0,42,0.00,,,0.00,661.000000,,2013-01-15 20:44:00,
2013-01-15 13:53:00,7.0,-11.0,-100.00,WNW,285,2.0,3.0,42,0.00,,,0.00,661.000000,,2013-01-15 20:53:00,
2013-01-15 14:03:00,7.0,-11.0,-100.00,WNW,285,2.0,3.0,42,0.00,,,0.00,661.000000,,2013-01-15 21:03:00,
2013-01-15 14:13:00,7.0,-11.0,-100.00,WNW,285,2.0,3.0,42,0.00,,,0.00,661.000000,,2013-01-15 21:13:00,
2013-01-15 14:22:00,9.0,-10.0,-100.00,North,354,2.0,3.0,41,0.00,,,0.00,585.000000,,2013-01-15 21:22:00,
2013-01-15 14:43:00,9.0,-10.0,-100.00,North,354,2.0,3.0,41,0.00,,,0.00,585.000000,,2013-01-15 21:43:00,
2013-01-15 14:53:00,9.0,-10.0,-100.00,North,354,2.0,3.0,41,0.00,,,0.00,585.000000,,2013-01-15 21:53:00,
2013-01-15 15:03:00,9.0,-10.0,-100.00,North,354,2.0,3.0,41,0.00,,,0.00,585.000000,,2013-01-15 22:03:00,
2013-01-15 15:12:00,9.0,-10.0,-100.00,North,354,2.0,3.0,41,0.00,,,0.00,585.000000,,2013-01-15 22:12:00,
2013-01-15 15:22:00,7.0,-9.0,-100.00,North,358,2.0,3.0,47,0.00,,,0.00,448.000000,,2013-01-15 22:22:00,
2013-01-15 15:43:00,7.0,-9.0,-100.00,North,358,2.0,3.0,47,0.00,,,0.00,448.000000,,2013-01-15 22:43:00,
2013-01-15 15:53:00,7.0,-9.0,-100.00,North,358,2.0,3.0,47,0.00,,,0.00,448.000000,,2013-01-15 22:53:00,
2013-01-15 16:02:00,7.0,-9.0,-100.00,North,358,2.0,3.0,47,0.00,,,0.00,448.000000,,2013-01-15 23:02:00,
2013-01-15 16:13:00,7.0,-9.0,-100.00,North,358,2.0,3.0,47,0.00,,,0.00,448.000000,,2013-01-15 23:13:00,
2013-01-15 16:22:00,7.0,-7.0,-100.00,NNE,14,0.0,3.0,51,0.00,,,0.00,262.000000,,2013-01-15 23:22:00,
2013-01-15 16:43:00,7.0,-7.0,-100.00,NNE,14,0.0,3.0,51,0.00,,,0.00,262.000000,,2013-01-15 23:43:00,
2013-01-15 16:53:00,7.0,-7.0,-100.00,NNE,14,0.0,3.0,51,0.00,,,0.00,262.000000,,2013-01-15 23:53:00,
2013-01-15 17:02:00,7.0,-7.0,-100.00,NNE,14,0.0,3.0,51,0.00,,,0.00,262.000000,,2013-01-16 00:02:00,
2013-01-15 17:12:00,7.0,-7.0,-100.00,NNE,14,0.0,3.0,51,0.00,,,0.00,262.000000,,2013-01-16 00:12:00,
2013-01-15 17:22:00,0.0,-7.0,-100.00,SE,136,2.0,3.0,70,0.00,,,0.00,43.000000,,2013-01-16 00:22:00,
2013-01-15 17:43:00,0.0,-7.0,-100.00,SE,136,2.0,3.0,70,0.00,,,0.00,43.000000,,2013-01-16 00:43:00,
2013-01-15 17:53:00,0.0,-7.0,-100.00,SE,136,2.0,3.0,70,0.00,,,0.00,43.000000,,2013-01-16 00:53:00,
2013-01-15 18:03:00,0.0,-7.0,-100.00,SE,136,2.0,3.0,70,0.00,,,0.00,43.000000,,2013-01-16 01:03:00,
2013-01-15 18:12:00,0.0,-7.0,-100.00,SE,136,2.0,3.0,70,0.00,,,0.00,43.000000,,2013-01-16 01:12:00,
2013-01-15 18:22:00,1.0,-4.0,-100.00,SE,138,1.0,2.0,77,0.00,,,0.00,0.000000,,2013-01-16 01:22:00,
2013-01-15 18:43:00,1.0,-4.0,-100.00,SE,138,1.0,2.0,77,0.00,,,0.00,0.000000,,2013-01-16 01:43:00,
2013-01-15 18:53:00,1.0,-4.0,-100.00,SE,138,1.0,2.0,77,0.00,,,0.00,0.000000,,2013-01-16 01:53:00,
2013-01-15 19:03:00,1.0,-4.0,-100.00,SE,138,1.0,2.0,77,0.00,,,0.00,0.000000,,2013-01-16 02:03:00,
2013-01-15 19:12:00,1.0,-4.0,-100.00,SE,138,1.0,2.0,77,0.00,,,0.00,0.000000,,2013-01-16 02:12:00,
2013-01-15 19:22:00,-2.0,-7.0,-100.00,ESE,107,2.0,2.0,78,0.00,,,0.00,0.000000,,2013-01-16 02:22:00,
2013-01-15 19:43:00,-2.0,-7.0,-100.00,ESE,107,2.0,2.0,78,0.00,,,0.00,0.000000,,2013-01-16 02:43:00,
2013-01-15 19:53:00,-2.0,-7.0,-100.00,ESE,107,2.0,2.0,78,0.00,,,0.00,0.000000,,2013-01-16 02:53:00,
2013-01-15 20:03:00,-2.0,-7.0,-100.00,ESE,107,2.0,2.0,78,0.00,,,0.00,0.000000,,2013-01-16 03:03:00,
2013-01-15 20:12:00,-2.0,-7.0,-100.00,ESE,107,2.0,2.0,78,0.00,,,0.00,0.000000,,2013-01-16 03:12:00,
2013-01-15 20:22:00,0.0,-4.0,-100.00,ESE,104,1.0,3.0,81,0.00,,,0.00,0.000000,,2013-01-16 03:22:00,
2013-01-15 20:43:00,0.0,-4.0,-100.00,ESE,104,1.0,3.0,81,0.00,,,0.00,0.000000,,2013-01-16 03:43:00,
2013-01-15 20:53:00,0.0,-4.0,-100.00,ESE,104,1.0,3.0,81,0.00,,,0.00,0.000000,,2013-01-16 03:53:00,
2013-01-15 21:02:00,0.0,-4.0,-100.00,ESE,104,1.0,3.0,81,0.00,,,0.00,0.000000,,2013-01-16 04:02:00,
2013-01-15 21:12:00,0.0,-4.0,-100.00,ESE,104,1.0,3.0,81,0.00,,,0.00,0.000000,,2013-01-16 04:12:00,
2013-01-15 21:22:00,-2.0,-6.0,-100.00,East,80,1.0,2.0,82,0.00,,,0.00,0.000000,,2013-01-16 04:22:00,
2013-01-15 21:42:00,-2.0,-6.0,-100.00,East,80,1.0,2.0,82,0.00,,,0.00,0.000000,,2013-01-16 04:42:00,
2013-01-15 21:52:00,-2.0,-6.0,-100.00,East,80,1.0,2.0,82,0.00,,,0.00,0.000000,,2013-01-16 04:52:00,
2013-01-15 22:03:00,-2.0,-6.0,-100.00,East,80,1.0,2.0,82,0.00,,,0.00,0.000000,,2013-01-16 05:03:00,
2013-01-15 22:12:00,-2.0,-6.0,-100.00,East,80,1.0,2.0,82,0.00,,,0.00,0.000000,,2013-01-16 05:12:00,
2013-01-15 22:22:00,0.0,-4.0,-100.00,ESE,112,2.0,3.0,84,0.00,,,0.00,0.000000,,2013-01-16 05:22:00,
2013-01-15 22:42:00,0.0,-4.0,-100.00,ESE,112,2.0,3.0,84,0.00,,,0.00,0.000000,,2013-01-16 05:42:00,
2013-01-15 22:53:00,0.0,-4.0,-100.00,ESE,112,2.0,3.0,84,0.00,,,0.00,0.000000,,2013-01-16 05:53:00,
2013-01-15 23:02:00,0.0,-4.0,-100.00,ESE,112,2.0,3.0,84,0.00,,,0.00,0.000000,,2013-01-16 06:02:00,
2013-01-15 23:12:00,0.0,-4.0,-100.00,ESE,112,2.0,3.0,84,0.00,,,0.00,0.000000,,2013-01-16 06:12:00,
2013-01-15 23:22:00,0.0,-4.0,-100.00,NNW,341,1.0,3.0,82,0.00,,,0.00,0.000000,,2013-01-16 06:22:00,
2013-01-15 23:43:00,0.0,-4.0,-100.00,NNW,341,1.0,3.0,82,0.00,,,0.00,0.000000,,2013-01-16 06:43:00,
2013-01-15 23:53:00,0.0,-4.0,-100.00,NNW,341,1.0,3.0,82,0.00,,,0.00,0.000000,,2013-01-16 06:53:00,